Valentine, NE

8:12 AM CDT on October 20, 2017 (GMT -0500)
Miller Field

Weather History for KVTN - April, 2014

Change the Weather History Date:

Thursday, April 17, 2014

  Actual Average Record
Temperature  
Mean Temperature 37 °F 47 °F  
Max Temperature 55 °F 61 °F 91 °F (1985)
Min Temperature 19 °F 33 °F 10 °F (1990)
Degree Days  
Heating Degree Days 28 18  
Month to date heating degree days 375 355  
Since 1 July heating degree days 6822 6484  
Cooling Degree Days 0 0  
Month to date cooling degree days 0 0  
Year to date cooling degree days 0 0  
Moisture  
Dew Point 22 °F    
Average Humidity 61    
Maximum Humidity 92    
Minimum Humidity 29    
Precipitation  
Precipitation T in 0.08 in 0.88 in (1930)
Month to date precipitation 0.44 1.09  
Year to date precipitation 1.59 2.90  
Snow  
Snow T in 0.20 in 7.70 in (1995)
Month to date snowfall 3.3 3.1  
Since 1 July snowfall 34.8 31.7  
Snow Depth 0.00 in    
Sea Level Pressure  
Sea Level Pressure 30.26 in    
Wind  
Wind Speed 10 mph (SE)    
Max Wind Speed 23 mph    
Max Gust Speed 29 mph    
Visibility 9 miles    
Events Snow    
T = Trace of Precipitation, MM = Missing Value Source: NWS Daily Summary

Daily Weather History Graph

Daily Weather History Graph

Search for Another Location

Airport or City:

Trip Planner

Search our weather history database for the weather conditions in past years. The results will help you decide how hot, cold, wet, or windy it might be!

Date:

Astronomy

Apr. 17, 2014 Rise Set
Actual Time 6:57 AM CDT 8:26 PM CDT
Civil Twilight 6:27 AM CDT 8:56 PM CDT
Nautical Twilight 5:51 AM CDT 9:32 PM CDT
Astronomical Twilight 5:13 AM CDT 10:10 PM CDT
Moon 11:17 PM CDT (4/17) 8:27 AM CDT (4/17)
Length of Visible Light 14h 28m
Length of Day
13h 29m
Waning Gibbous, 93% of the Moon is Illuminated
Apr 17
Waning Gibbous
Apr 22
Last Quarter
Apr 29
New
May 6
First Quarter
May 14
Full

Hourly Weather History & Observations

Time (CDT) Temp. Windchill Dew Point Humidity Pressure Visibility Wind Dir Wind Speed Gust Speed Precip Events Conditions
12:52 AM 30.0 °F 20.5 °F 21.9 °F 72% 30.29 in 10.0 mi NE 11.5 mph - N/A   Overcast
1:52 AM 28.0 °F 20.8 °F 21.0 °F 75% 30.30 in 10.0 mi ENE 6.9 mph - N/A   Overcast
2:08 AM 27.0 °F 23.0 °F 19.9 °F 75% 30.22 in 10.0 mi NE 3.5 mph - N/A   Scattered Clouds
2:52 AM 25.0 °F - 19.9 °F 81% 30.30 in 10.0 mi Calm Calm - N/A   Clear
3:52 AM 19.9 °F 13.4 °F 17.1 °F 89% 30.33 in 8.0 mi WSW 4.6 mph - N/A   Clear
4:52 AM 21.0 °F 16.2 °F 18.0 °F 88% 30.34 in 9.0 mi West 3.5 mph - N/A   Partly Cloudy
5:52 AM 21.9 °F - 19.0 °F 89% 30.33 in 9.0 mi Calm Calm - N/A   Overcast
6:52 AM 21.9 °F - 18.0 °F 85% 30.35 in 8.0 mi Calm Calm - N/A   Clear
7:52 AM 24.1 °F 19.7 °F 21.0 °F 88% 30.35 in 6.0 mi SSE 3.5 mph - N/A   Mostly Cloudy
8:52 AM 28.9 °F 25.2 °F 23.0 °F 78% 30.35 in 9.0 mi SSE 3.5 mph - N/A   Partly Cloudy
9:52 AM 32.0 °F 27.5 °F 21.9 °F 66% 30.34 in 10.0 mi ESE 4.6 mph - N/A   Overcast
10:52 AM 35.1 °F 29.3 °F 21.9 °F 59% 30.34 in 10.0 mi SE 6.9 mph - N/A   Mostly Cloudy
11:52 AM 39.2 °F 31.2 °F 21.2 °F 49% 30.25 in 10.0 mi ESE 13.8 mph - N/A   Mostly Cloudy
12:52 PM 37.9 °F 30.5 °F 21.9 °F 53% 30.32 in 7.0 mi SE 11.5 mph - 0.00 in Snow Light Snow
1:52 PM 42.1 °F 34.9 °F 23.0 °F 47% 30.28 in 10.0 mi SSE 13.8 mph 23.0 mph 0.00 in   Overcast
2:52 PM 44.1 °F 37.4 °F 26.1 °F 49% 30.27 in 10.0 mi SSE 13.8 mph - N/A   Overcast
3:52 PM 48.0 °F - 23.0 °F 37% 30.24 in 10.0 mi SSE 16.1 mph 21.9 mph N/A   Overcast
4:52 PM 53.1 °F - 23.0 °F 31% 30.19 in 10.0 mi SSE 18.4 mph 27.6 mph N/A   Scattered Clouds
5:52 PM 54.0 °F - 24.1 °F 31% 30.17 in 10.0 mi SSE 16.1 mph 24.2 mph N/A   Clear
6:52 PM 54.0 °F - 24.1 °F 31% 30.16 in 10.0 mi South 18.4 mph - N/A   Clear
7:52 PM 53.1 °F - 27.0 °F 37% 30.14 in 10.0 mi SSE 10.4 mph - N/A   Partly Cloudy
8:52 PM 48.9 °F - 26.1 °F 41% 30.14 in 10.0 mi SE 11.5 mph - N/A   Overcast
9:52 PM 44.6 °F 38.1 °F 24.8 °F 46% 30.10 in 10.0 mi SE 13.8 mph - N/A   Partly Cloudy
10:52 PM 42.1 °F 35.2 °F 26.1 °F 53% 30.15 in 10.0 mi SSE 12.7 mph - N/A   Clear
11:52 PM 43.0 °F 36.0 °F 28.0 °F 56% 30.13 in 10.0 mi SSE 13.8 mph - N/A   Partly Cloudy